Zurück zum Katalog

COSMOS 2545

GLONASS

AktivNavigationMEO
NORAD 45358·PAYLOAD·🇷🇺 Russia

Gestartet Mar 16, 2020 von Plesetsk Cosmodrome

Loading…

Nächste Überflüge (nächste 24 Stunden)

TLE

AktuellSource: CelesTrak SupGP

Epoche: Sep 13, 2026, 23:59 UTC

1 45358C 20018A   26256.99979167  .00000000  00000+0  00000+0 0  2568
2 45358  64.2965 309.2932 0011985 237.0244 188.4344  2.13102766    14

Verfolge COSMOS 2545 in Echtzeit mit AllMySat

Download on the App Store